Tracking 35051 objects as of 17-Aug-2026
HD Live streaming from Space Station
objects crossing your sky now

GLOBALSTAR M049

Track GLOBALSTAR M049 now!
10-day predictions
GLOBALSTAR M049 is classified as:


NORAD ID: 25771
Int'l Code: 1999-031B
Launch date: June 10, 1999
Source: Globalstar (GLOB)
Launch site: AIR FORCE EASTERN TEST RANGE (AFETR)
Your satellite tracking list
Your tracking list is empty




NASA's NSSDC Master Catalog

Two Line Element Set (TLE):
1 25771U 99031B   26228.48653772  .00000062  00000-0  44243-2 0  9993
2 25771  51.9897 310.1591 0002094  15.7005 344.3856 11.12133320164748
Source of the keplerian elements: AFSPC